Regional Weather Roundup
Issued by NWS Charleston, SC

Home | Current Version | Previous Version | Text Only | Print | Product List | Glossary On
Versions: 1 2 3 4 5 6 7 8 9 10 11 12 13 14 15 16 17 18 19 20 21 22 23 24 25 26 27 28 29 30 31 32 33 34 35 36 37 38 39 40 41 42 43 44 45 46 47 48 49 50
000
ASUS42 KCHS 201125
RWRCHS

REGIONAL WEATHER ROUNDUP
NATIONAL WEATHER SERVICE CHARLESTON SC
700 AM EDT MON OCT 20 2014

NOTE: "FAIR" INDICATES FEW OR NO CLOUDS BELOW 12,000 FEET WITH NO
SIGNIFICANT WEATHER AND/OR OBSTRUCTIONS TO VISIBILITY.

NOT ALL STATIONS ARE QUALITY CONTROLLED BY THE NATIONAL
WEATHER SERVICE. USE DATA WITH CAUTION...ESPECIALLY
DEWPOINT OBSERVATIONS.

SCZ027-030-031-034>040-042>050-201200-
...SOUTH CAROLINA...

CITY           SKY/WX    TMP DP  RH WIND       PRES   REMARKS
N CHARLESTON   PTCLDY    52  48  86 CALM      30.13S
WATERFRONT PRK   N/A     63 N/A N/A N7          N/A
FORT JOHNSON   NOT AVBL
JOHNS ISLAND   SUNNY     57  54  88 CALM      30.12S
PINOPOLIS        N/A     59  50  72 SE3       30.06R
MONCKS CORNER  FAIR      50  50 100 CALM      30.13S
SUMMERVILLE    FAIR      45  45 100 CALM      30.14S
BEAUFORT MCAS  PTCLDY    55  51  86 N3        30.12R
BEAUFORT ARPT  FAIR      57  55  94 N5        30.11S
HILTON HEAD IS CLEAR     55  55 100 N3        30.11F
GEORGETOWN     NOT AVBL
WALTERBORO     SUNNY     45 N/A N/A CALM      30.14S
ORANGEBURG     CLEAR     45  43  93 CALM      30.14R
BARNWELL       FAIR      41  39  93 CALM      30.14S
AIKEN          FAIR      43  43 100 CALM      30.17R
MANNING        FAIR      43 N/A N/A CALM      30.15S
KINGSTREE      NOT AVBL
COLUMBIA       CLEAR     44  40  85 CALM      30.15R
SUMTER         CLEAR     45  44  95 CALM      30.14R
FLORENCE       CLEAR     44  41  89 CALM      30.15R
MYRTLE BEACH   CLEAR     50  45  81 N7        30.15R
N MYRTLE BEACH CLEAR     47  43  86 NE5       30.14S

$$

GAZ063-065-086>088-099>101-113>116-118-119-134-136>141-150-201200-
...GEORGIA...

CITY           SKY/WX    TMP DP  RH WIND       PRES   REMARKS
SAVANNAH ARPT  CLEAR     54  50  86 CALM      30.11R
HUNTER AAF     CLEAR     55  51  88 N3        30.08S
FORT STEWART   CLEAR     50  47  92 CALM      30.09R
STATESBORO     NOT AVBL
SYLVANIA       SUNNY     49  48  98 CALM      30.13S
CLAXTON        FAIR      45  45 100 CALM      30.12R
THOMSON        CLEAR     45  45 100 CALM      30.17S
AUGUSTA-BUSH   CLEAR     39  39 100 CALM      30.14S FOG
AUGUSTA-DANIEL CLEAR     52  49  89 CALM      30.14R
SWAINSBORO     FAIR      46  46 100 MISG      30.12S
VIDALIA        CLEAR     50  50 100 CALM      30.11S
ALMA           CLEAR     48  46  93 CALM      30.10R FOG
WAYCROSS       MOCLDY    55  53  95 CALM      30.09S
JESUP          FAIR      54  52  94 CALM      30.10R
BRUNSWICK      MOCLDY    54  54 100 CALM      30.09R
SAINT SIMONS   PTCLDY    55  55 100 CALM      30.07S

$$

SCZ027-028-034-036>038-045-046-048>050-GAZ119-141-201200-
...LAKE AND SUPPLEMENTAL COASTAL OBSERVATIONS...

STATION/POSITION TIME  TEMP    WIND        PRES    WAVE   SWELL
                       AIR SEA DIR/SP/G            HT/PER HT/PER/DIR
                 (UTC) (F)     (DEG/KT/KT) (MB)    (FT/S) (FT/S/D)
UPR LAKE MARION  NOT AVBL
WINYAH BAY       1100   53     320/  3     1020.0S
LAKE MURRAY      1100   56     120/  4/  5 1020.0S
ACE BASIN NERRS  1100   52        CALM     1019.0S
FORT PULASKI     1100   65      10/  7/  9 1019.4R
SAPELO ISLAND    NOT AVBL

$$

ANZ835-935-AMZ111-154-330-350-352-354-374-450-454-472-201200-
...C-MAN AND BUOY OBSERVATIONS...

STATION/POSITION TIME  TEMP    WIND        PRES    WAVE   SWELL
                       AIR SEA DIR/SP/G            HT/PER HT/PER/DIR
                 (UTC) (F)     (DEG/KT/KT) (MB)    (FT/S) (FT/S/D)
FOLLY BEACH CMAN 1100   64      10/ 10/ 11 1020.2S
BUOY 41004       1100   71 79   70/  4/  6 1019.2R   2/ 9   2/ 9
BUOY 41008       1100   71 76   70/ 10/ 12 1018.4R   3/ 6   2/ 60/ 6
5E ST. MARYS GA  1100      77                N/A     3/11   2/100/11
FRYING PAN BUOY  1100   67 75  110/  4/  8 1021.1R   2/11   2/110/11
BUOY 41025       1100   62      20/  4/  8 1020.8R   4/12   3/ 40/12
CAPE LOOKOUT NC  1100   60     360/  7/  9 1021.1R
BUOY 41002       1021   70 80   50/  8/ 12 1019.9R   5/ 8   5/ 20/ 8
BUOY 41010       1100   77 80   60/ 12/ 16 1016.9R   4/ 6   3/350/ 6
BUOY 41012       NOT AVBL
ST AUGUSTINE FL  1100   75     100/  8/ 10 1018.2R
CAPERS NEARSHORE NOT AVBL
FRIPP NEARSHORE  NOT AVBL


$$


USA.gov is the U.S. government's official web portal to all federal, state and local government web resources and services.